Retour au catalogue

STARLINK-36931

ActifCommunicationsVLEO
NORAD 68000·PAYLOAD·🇺🇸 United States

Lancé Feb 27, 2026 depuis Vandenberg Space Force Base

Loading…

Prochains Passages (prochaines 24 heures)

TLE

FraisSource: CelesTrak SupGP

Époque: Sep 15, 2026, 04:07 UTC

1 68000C 26039Q   26258.17201389 -.00021372  00000+0 -77390-3 0  2581
2 68000  43.0012  58.3980 0001396 267.7333 221.9888 15.27597037    14

Suivez STARLINK-36931 en temps réel avec AllMySat

Download on the App Store